RH
17 19 19 13 13 10 14 13 13 17 19 30 30 27 30 42 42 47 51 55 57 57 57 58 62 62 65 70 76 80 84 88 79 70 73 78 78 81 83 83 70 68 74 67
18 18 12 12 12 14 12 19 21 17 19 26 28 28 23 36 39 44 48 50 53 53 55 57 61 62 65 71 77 82 82 89 56 66 68 72 74 72 76 83 66 65 68 67
18 13 11 12 15 16 15 13 14 20 22 20 27 30 26 26 38 41 45 46 49 49 52 58 60 62 64 70 79 84 74 56 41 68 68 78 83 83 85 83 76 71 65 66
17 12 16 14 16 13 14 10 11 13 20 27 22 33 28 24 34 37 42 45 46 48 49 54 60 63 62 68 78 82 82 50 37 40 66 68 70 66 64 73 73 80 64 67
22 21 20 21 18 13 14 10 10 11 13 20 25 31 25 22 28 35 36 40 43 47 48 50 57 62 61 64 73 82 90 59 47 34 56 66 59 56 62 68 77 82 68 65
19 21 20 18 17 17 15 15 14 13 11 13 19 26 26 22 24 23 29 34 40 45 46 49 52 58 63 64 69 78 84 57 42 35 32 50 60 54 62 70 70 71 74 83
16 19 18 18 20 18 18 18 22 22 17 13 10 17 24 18 17 21 22 29 35 41 47 49 51 55 62 65 68 72 81 56 46 41 40 37 44 51 72 80 74 66 64 67
13 13 15 24 20 20 21 18 22 28 16 12 9 13 14 15 16 17 22 23 31 37 42 49 53 54 59 65 69 72 77 81 59 48 42 47 40 71 72 74 72 70 63 63
17 14 22 21 24 23 21 22 15 18 15 14 9 9 7 10 15 16 18 22 24 34 39 46 51 56 57 64 68 74 76 63 74 75 43 48 41 57 75 74 73 75 76 67
25 16 13 18 18 20 25 15 22 20 31 29 17 15 10 12 17 16 16 18 22 30 38 42 48 53 56 60 64 72 78 77 62 80 66 61 47 52 58 78 70 77 77 67
23 21 16 14 9 11 20 25 23 19 20 25 25 16 10 10 11 16 16 16 18 26 35 40 44 48 54 56 60 66 73 80 80 70 74 68 67 60 50 65 56 57 60 61
27 27 33 17 8 10 14 27 21 24 29 22 22 18 9 11 10 10 13 15 16 20 28 35 38 44 48 54 56 61 65 70 73 60 54 58 53 52 75 51 55 54 56 57
33 32 33 13 10 12 15 14 22 25 25 30 27 23 13 13 14 12 11 11 16 18 22 31 34 39 45 50 54 54 59 59 63 71 60 63 68 63 54 48 50 54 53 55
35 26 32 21 14 16 28 26 21 25 31 28 26 23 18 16 14 14 15 16 13 14 20 25 30 33 42 46 54 56 55 54 56 64 67 65 47 54 50 48 49 50 52 52
40 58 34 28 25 23 21 17 24 36 36 39 26 22 19 18 16 14 14 15 17 18 20 28 30 34 42 49 53 60 57 57 54 61 64 64 43 44 46 47 48 48 49 50
39 55 36 34 26 26 24 17 15 21 29 33 32 31 21 16 18 16 15 16 19 24 23 20 28 32 40 48 54 61 64 59 59 62 65 66 44 42 45 47 47 48 47 48
58 56 51 43 24 20 23 19 20 17 22 29 36 26 19 21 23 22 21 22 30 36 39 40 34 30 35 44 52 57 64 63 64 67 70 67 49 42 42 44 46 47 47 47
54 69 65 45 28 50 24 16 17 19 17 23 27 25 21 26 32 51 61 61 61 60 58 56 50 45 35 36 42 56 62 67 69 72 64 58 55 47 44 45 46 47 47 48
43 68 73 72 51 36 32 28 32 21 21 24 27 24 20 23 33 58 76 84 87 84 83 78 69 59 53 40 38 49 59 70 73 73 60 51 47 48 47 48 49 47 48 50
51 59 87 62 71 69 44 70 72 58 46 44 43 33 24 29 38 34 88 90 91 95 93 91 82 69 62 60 39 42 60 66 77 72 41 44 44 43 45 45 46 45 48 46
73 88 94 74 71 56 41 65 79 99 62 52 58 70 69 39 66 91 92 95 99 94 97 91 79 71 62 58 40 44 59 63 57 76 80 79 59 42 48 48 42 42 44 56
78 87 87 83 87 88 79 94 98 80 74 82 78 73 71 71 71 75 84 98 98 98 99 74 56 49 44 41 46 53 63 63 77 77 79 73 50 51 70 52 50 52 48 47
99 92 100 96 88 88 97 99 96 90 99 92 79 71 62 58 66 71 73 85 97 100 100 89 68 57 56 59 54 65 72 76 82 82 84 81 68 46 72 64 68 81 69 83
98 99 100 100 94 98 95 98 98 100 100 97 87 83 79 74 68 72 73 78 84 98 99 100 94 95 80 71 71 74 83 82 87 89 92 94 96 90 87 89 92 90 86 87
99 98 100 100 97 95 96 98 98 100 100 100 92 94 92 78 74 73 83 79 73 79 99 100 100 98 99 99 99 99 98 96 91 92 92 94 92 97 97 91 86 86 80 78
98 99 100 100 98 98 96 98 97 100 99 98 94 94 96 90 89 81 85 84 83 73 78 96 99 100 100 100 100 100 100 100 92 92 84 81 78 88 88 91 93 88 82 85
Wind_Speed
17 15 19 19 18 16 8 12 16 14 13 14 18 14 14 16 17 19 21 26 29 33 34 34 32 32 29 28 26 26 25 23 23 22 20 18 16 14 11 9 11 8 6 6
11 19 18 15 14 15 16 11 13 9 8 11 18 19 15 16 18 21 22 24 27 29 33 35 34 34 33 31 29 28 28 25 27 23 21 18 16 14 11 9 12 11 8 5
17 5 19 14 15 17 18 18 14 11 4 14 14 16 17 17 17 19 20 22 26 30 34 36 36 36 35 33 32 30 32 31 31 24 23 21 17 14 14 12 11 11 10 8
17 15 6 17 18 17 18 17 14 15 12 12 20 14 21 18 18 18 22 25 28 31 33 35 37 37 37 35 32 31 31 34 34 33 25 26 21 18 16 14 12 10 11 10
11 13 19 18 13 20 16 12 13 14 17 16 15 12 17 24 19 19 22 26 28 31 34 36 39 38 36 35 34 33 31 35 35 36 29 28 26 19 16 15 14 13 12 10
16 1 7 20 19 11 4 15 13 14 14 18 23 18 18 20 22 21 24 26 28 31 34 35 35 35 36 35 35 33 35 38 39 38 38 33 28 25 20 19 17 14 13 13
13 15 13 12 13 21 17 13 9 12 14 20 20 20 19 13 19 19 19 26 28 30 32 34 36 38 37 38 38 37 37 42 42 40 38 37 33 30 24 20 19 16 16 14
10 13 15 1 17 13 23 21 12 20 14 20 20 21 22 26 21 15 22 20 26 28 31 34 37 38 39 40 39 38 38 40 43 44 42 38 37 29 27 25 19 18 17 16
7 10 3 3 4 9 18 22 25 23 16 13 17 18 18 22 24 29 17 25 22 27 31 35 36 38 38 39 43 44 43 44 41 40 44 41 39 37 28 27 24 22 19 16
3 7 4 2 9 17 18 16 18 17 23 23 17 19 16 21 21 23 24 27 23 24 28 31 35 38 38 39 40 40 38 40 43 39 41 40 41 41 38 29 30 24 21 21
2 3 8 3 11 17 16 19 15 16 19 18 19 16 13 16 22 22 24 30 31 24 28 32 35 38 40 38 38 41 40 37 38 43 41 42 39 40 41 35 35 32 28 25
1 4 8 12 10 11 11 15 18 17 24 20 19 10 15 5 14 24 30 25 31 29 28 30 33 34 36 39 39 40 41 39 38 43 47 46 45 42 35 39 36 34 31 28
4 4 6 8 17 16 12 20 15 16 21 23 20 19 17 12 5 13 22 31 26 28 29 30 28 31 36 40 42 42 41 41 39 38 41 41 40 40 41 40 37 35 32 29
3 11 12 12 14 11 10 12 14 17 17 20 23 21 17 22 16 9 13 16 23 30 22 26 28 30 33 37 42 45 43 41 39 38 39 41 45 43 42 42 39 36 33 30
8 10 14 17 16 16 18 19 19 20 18 22 21 24 25 19 21 17 10 7 4 10 19 22 25 29 32 36 39 43 41 40 40 43 41 43 47 47 45 42 40 37 34 32
15 13 13 17 16 18 23 23 26 25 25 25 24 29 29 32 27 31 29 22 13 12 8 12 21 25 28 33 40 41 46 44 44 46 49 46 48 47 46 45 43 40 36 35
15 10 12 18 18 20 23 21 27 30 27 27 25 25 27 14 14 22 21 19 14 13 12 13 16 20 26 31 36 42 46 45 45 47 47 47 49 49 47 45 43 42 40 37
14 14 11 14 16 19 22 25 27 31 30 28 26 27 32 10 10 5 5 8 10 10 12 14 16 19 25 27 30 33 33 42 45 45 48 47 49 48 47 47 46 44 41 41
20 12 7 10 12 17 27 24 22 30 30 24 30 30 42 22 16 13 4 5 9 13 17 19 19 23 22 25 30 32 33 36 42 47 48 47 46 45 45 46 45 43 41 40
23 19 11 10 10 15 8 18 40 36 18 18 14 17 23 22 16 9 7 9 12 14 17 21 20 23 26 28 30 34 36 38 45 48 45 45 44 43 43 43 43 42 41 41
14 15 15 15 13 13 14 20 33 9 10 14 6 6 12 17 1 6 8 8 9 14 18 19 20 25 30 29 33 40 39 43 44 36 34 38 41 41 40 39 37 37 39 36
7 6 7 9 9 15 8 17 6 4 13 9 4 10 15 13 12 13 13 13 10 10 11 10 10 14 19 27 37 39 44 37 34 35 36 38 39 36 33 36 35 35 36 37
2 4 2 5 4 4 17 25 16 10 6 4 10 14 16 16 18 18 22 24 19 18 17 8 2 10 14 21 30 31 30 28 28 29 34 34 34 35 33 35 34 32 33 29
2 8 4 3 6 11 12 15 17 5 5 8 11 15 15 18 17 18 23 27 27 25 24 19 13 15 14 16 19 21 23 27 26 26 27 25 26 28 29 27 28 28 28 29
3 8 6 5 6 16 8 17 15 12 10 11 11 15 16 15 18 19 24 26 29 29 30 28 25 22 21 20 18 19 16 23 23 24 22 21 21 22 21 21 23 24 23 25
12 5 4 2 16 6 13 18 16 10 14 13 14 16 17 19 21 21 23 24 26 28 30 30 30 29 22 21 20 15 18 15 19 21 21 20 19 17 18 20 22 24 26 28
Wind_Direction
195 207 214 213 217 242 299 234 232 199 230 203 224 220 171 180 188 177 183 187 190 193 191 193 193 194 193 194 193 193 192 195 192 193 192 192 189 191 193 197 197 188 181 180
183 225 219 228 216 231 235 240 230 255 242 252 225 229 217 178 193 187 188 190 195 192 191 193 195 197 197 196 197 197 197 198 197 198 192 195 196 199 196 199 192 194 192 180
213 225 215 205 225 216 230 234 235 252 171 258 260 238 227 183 199 191 195 194 195 195 192 194 196 198 199 200 199 200 201 202 201 197 197 200 196 195 200 200 199 200 201 197
229 214 204 198 223 212 232 221 243 253 256 239 213 237 210 210 198 199 197 195 197 196 198 197 196 199 201 201 201 202 202 206 206 204 202 205 201 200 205 201 198 200 201 208
207 220 226 222 214 221 241 245 234 238 248 258 231 238 240 201 201 202 205 201 199 200 198 198 201 201 200 201 202 203 204 207 208 210 202 211 206 212 211 205 206 194 204 208
263 248 273 232 224 204 248 223 223 233 236 240 232 237 226 228 204 202 201 205 202 200 202 202 202 201 202 201 202 201 204 210 211 212 212 212 213 207 208 209 213 211 214 216
210 234 225 250 219 210 210 193 206 219 219 236 219 231 233 230 222 214 208 204 207 204 202 201 200 200 201 202 203 203 205 211 214 213 215 218 216 218 212 213 212 213 215 215
224 195 204 6 242 215 213 214 228 217 214 229 217 234 226 232 258 258 219 216 207 209 204 203 202 201 201 202 202 203 206 208 212 215 217 219 221 217 216 223 214 220 219 223
218 232 130 244 275 253 221 219 226 259 267 251 219 216 235 218 222 233 229 230 206 206 206 205 203 203 202 202 203 204 204 211 210 212 217 219 219 216 217 217 230 224 223 222
100 264 182 251 266 236 247 230 215 231 241 246 230 241 214 211 222 222 224 221 219 208 208 206 206 205 204 205 204 205 207 209 210 209 215 217 218 221 222 226 226 225 226 231
293 262 150 269 212 221 216 241 255 249 224 238 234 237 224 223 216 222 225 223 218 209 208 207 207 208 207 204 201 203 205 205 205 211 213 215 217 220 226 226 233 236 234 235
149 312 259 251 266 281 284 279 248 232 225 236 261 252 200 219 236 221 231 220 218 209 211 210 208 207 206 205 203 202 203 203 205 209 215 218 219 221 220 227 230 235 235 234
178 213 274 227 213 227 237 244 241 263 272 254 228 228 253 284 257 246 225 228 214 217 214 213 208 207 207 207 205 205 204 205 204 204 209 212 214 217 220 224 227 232 233 234
234 265 248 274 318 346 285 278 280 248 249 250 246 260 241 230 250 239 227 240 231 221 217 219 216 214 211 209 207 205 206 205 203 203 205 209 215 216 218 223 225 228 229 231
236 241 248 256 264 275 270 270 259 255 255 256 264 254 244 241 246 250 224 177 205 222 221 214 215 213 210 207 208 208 207 205 204 206 204 209 214 218 222 223 223 224 227 228
224 255 264 268 261 257 258 260 264 250 249 255 256 265 277 249 236 248 250 254 251 247 225 221 221 219 217 212 209 207 204 204 202 205 207 207 214 217 221 224 225 225 223 223
212 238 245 257 261 254 249 251 257 258 240 242 243 242 257 251 244 256 260 254 256 256 251 242 234 225 221 217 212 208 206 202 204 204 206 207 214 214 217 221 223 225 224 223
224 224 245 257 274 263 259 254 259 253 242 235 242 247 250 238 265 251 246 263 267 266 263 255 244 237 227 222 217 213 208 203 204 204 211 211 217 217 217 219 222 223 224 226
224 220 244 242 248 263 278 272 266 235 231 229 238 226 240 243 244 204 245 301 292 286 278 269 253 243 237 224 216 212 206 205 202 204 212 216 216 216 216 219 219 220 221 222
215 202 214 242 250 260 267 321 319 309 208 199 226 241 227 226 225 205 346 325 310 295 280 271 258 248 237 227 209 208 204 202 204 206 212 213 212 212 214 216 216 216 217 219
199 206 214 231 251 271 288 301 302 244 163 156 168 267 246 226 329 22 7 348 318 302 296 282 266 242 228 220 203 203 201 206 211 203 203 206 211 214 213 211 212 215 216 216
186 185 212 233 244 255 18 305 227 35 91 101 141 112 103 95 77 55 40 53 45 12 345 315 263 223 213 203 194 199 200 204 199 197 199 203 209 208 209 215 213 213 214 217
200 219 282 220 228 339 296 282 328 2 74 67 78 88 92 89 70 54 45 47 48 51 52 45 124 185 185 186 189 193 197 196 193 196 201 203 204 207 205 205 206 206 209 208
218 223 242 268 214 279 272 308 316 357 24 46 65 72 73 70 62 47 51 39 35 60 59 75 105 109 131 161 177 186 187 192 187 193 196 196 201 201 198 205 206 206 209 212
274 290 282 258 270 322 232 324 353 360 34 47 53 54 54 58 48 43 43 36 34 44 63 71 74 90 97 111 125 143 169 183 181 187 187 189 193 201 204 199 205 212 215 217
359 352 341 304 318 321 294 340 352 14 31 30 40 49 46 46 34 37 40 38 32 38 44 58 72 65 70 80 79 92 144 157 184 184 178 178 186 192 192 205 214 208 210 213